RYR8603 LICR-EDDB

Flight info

Callsign RYR8603
Flight time 2h 6m
Altitude 37000
Route DCT PAZZE Z854 BAGIX/N0446F380 DCT XAMIT DCT DARZA DCT TIVAP/N0450F390 DCT UPEGU DCT BEKVI DCT ODLIV/N0452F380 DCT LEGAZ DCT BEFRE T204 IVDUF/N0450F300 T204 NUKRO NUK06L
Aircraft B38M/M-SDE1FGHILORVWXY/HB1

Departure

Time 2026-05-06 17:23
Airport Reggio Calabria Airport (LICR)

Arrival

Time 2026-05-06 19:29
Airport Berlin Brandenburg Airport (EDDB)
Time Latitude Longitude Altitude Speed Heading
2026-05-06 17:05 38.07412 15.65265 52 ft 0 kts 122°
2026-05-06 17:20 38.07408 15.65268 52 ft 1 kts 166°
2026-05-06 17:20 38.07386 15.65241 48 ft 9 kts 218°
2026-05-06 17:20 38.07324 15.65189 52 ft 12 kts 245°
2026-05-06 17:20 38.07312 15.65158 50 ft 0 kts 243°
2026-05-06 17:21 38.07308 15.65147 51 ft 4 kts 243°
2026-05-06 17:21 38.07288 15.65057 50 ft 15 kts 293°
2026-05-06 17:21 38.07400 15.64977 55 ft 25 kts 333°
2026-05-06 17:22 38.07588 15.64854 61 ft 34 kts 332°
2026-05-06 17:22 38.07802 15.64716 69 ft 31 kts 333°
2026-05-06 17:22 38.07915 15.64619 74 ft 11 kts 357°
2026-05-06 17:22 38.07921 15.64641 68 ft 3 kts 134°
2026-05-06 17:23 38.07866 15.64676 65 ft 27 kts 153°
2026-05-06 17:23 38.07410 15.64968 52 ft 117 kts 153°
2026-05-06 17:23 38.06477 15.65572 175 ft 174 kts 153°
2026-05-06 17:23 38.05359 15.66215 1172 ft 176 kts 162°
2026-05-06 17:24 38.04187 15.66592 2275 ft 175 kts 172°
2026-05-06 17:24 38.02913 15.66634 2970 ft 192 kts 192°
2026-05-06 17:24 38.01788 15.65651 3616 ft 208 kts 239°
2026-05-06 17:24 38.01560 15.63836 4403 ft 220 kts 283°
2026-05-06 17:25 38.02312 15.62174 5370 ft 220 kts 312°
2026-05-06 17:25 38.03566 15.61006 6248 ft 231 kts 332°
2026-05-06 17:25 38.05114 15.60435 7236 ft 232 kts 352°
2026-05-06 17:25 38.06787 15.60246 7908 ft 254 kts 353°
2026-05-06 17:26 38.08596 15.59945 8607 ft 267 kts 348°
2026-05-06 17:26 38.10456 15.59588 9551 ft 274 kts 349°
2026-05-06 17:26 38.12373 15.59271 10431 ft 281 kts 351°
2026-05-06 17:26 38.14334 15.58988 11300 ft 287 kts 350°
2026-05-06 17:27 38.16350 15.58657 12034 ft 300 kts 349°
2026-05-06 17:27 38.18490 15.58291 12497 ft 320 kts 349°
2026-05-06 17:27 38.20765 15.57909 12925 ft 340 kts 349°
2026-05-06 17:27 38.23172 15.57512 13372 ft 358 kts 349°
2026-05-06 17:28 38.25718 15.57095 13679 ft 378 kts 349°
2026-05-06 17:28 38.28394 15.56661 13914 ft 397 kts 349°
2026-05-06 17:28 38.31180 15.56216 14241 ft 410 kts 350°
2026-05-06 17:28 38.34027 15.55772 14884 ft 413 kts 350°
2026-05-06 17:29 38.36896 15.55333 15499 ft 417 kts 350°
2026-05-06 17:29 38.39792 15.54891 16109 ft 421 kts 350°
2026-05-06 17:29 38.42707 15.54448 16709 ft 424 kts 350°
2026-05-06 17:29 38.45616 15.54006 17292 ft 428 kts 350°
2026-05-06 17:30 38.48624 15.53548 17821 ft 433 kts 350°
2026-05-06 17:30 38.51617 15.53091 17927 ft 445 kts 350°
2026-05-06 17:30 38.54645 15.52633 17988 ft 429 kts 350°
2026-05-06 17:30 38.57599 15.52319 17990 ft 424 kts 354°
2026-05-06 17:31 38.60531 15.52125 17984 ft 421 kts 353°
2026-05-06 17:31 38.63445 15.51910 18244 ft 417 kts 353°
2026-05-06 17:31 38.66355 15.51686 18733 ft 419 kts 353°
2026-05-06 17:31 38.69282 15.51458 19218 ft 424 kts 353°
2026-05-06 17:32 38.72225 15.51227 19854 ft 425 kts 353°
2026-05-06 17:32 38.75184 15.50994 20470 ft 427 kts 353°
2026-05-06 17:32 38.78158 15.50760 21041 ft 430 kts 352°
2026-05-06 17:32 38.81153 15.50524 21610 ft 432 kts 352°
2026-05-06 17:33 38.84162 15.50286 22164 ft 435 kts 352°
2026-05-06 17:33 38.87190 15.50047 22727 ft 437 kts 352°
2026-05-06 17:33 38.90236 15.49807 23279 ft 440 kts 352°
2026-05-06 17:33 38.93301 15.49564 23779 ft 442 kts 352°
2026-05-06 17:34 38.96380 15.49321 24237 ft 445 kts 352°
2026-05-06 17:34 38.99458 15.48980 24697 ft 444 kts 348°
2026-05-06 17:34 39.02540 15.48485 25154 ft 447 kts 349°
2026-05-06 17:34 39.05624 15.48008 25634 ft 448 kts 349°
2026-05-06 17:35 39.08724 15.47538 26134 ft 449 kts 349°
2026-05-06 17:35 39.11831 15.47070 26617 ft 450 kts 349°
2026-05-06 17:35 39.14940 15.46601 27107 ft 450 kts 349°
2026-05-06 17:36 39.21177 15.45660 28053 ft 452 kts 349°
2026-05-06 17:36 39.24306 15.45187 28523 ft 453 kts 349°
2026-05-06 17:36 39.27441 15.44713 28983 ft 454 kts 349°
2026-05-06 17:36 39.30587 15.44238 29457 ft 455 kts 349°
2026-05-06 17:37 39.33730 15.43762 29937 ft 455 kts 349°
2026-05-06 17:37 39.36882 15.43284 30353 ft 456 kts 349°
2026-05-06 17:37 39.40027 15.42806 30760 ft 456 kts 349°
2026-05-06 17:37 39.43180 15.42327 31169 ft 456 kts 348°
2026-05-06 17:38 39.46329 15.41849 31597 ft 455 kts 348°
2026-05-06 17:38 39.49468 15.41371 32035 ft 454 kts 348°
2026-05-06 17:38 39.52604 15.40894 32459 ft 454 kts 348°
2026-05-06 17:38 39.55739 15.40416 32872 ft 453 kts 348°
2026-05-06 17:39 39.58874 15.39938 33292 ft 453 kts 348°
2026-05-06 17:39 39.62001 15.39460 33719 ft 452 kts 348°
2026-05-06 17:39 39.65120 15.38983 34126 ft 451 kts 348°
2026-05-06 17:39 39.68195 15.38514 34481 ft 451 kts 348°
2026-05-06 17:40 39.71350 15.38031 34832 ft 450 kts 348°
2026-05-06 17:40 39.74410 15.37562 35163 ft 449 kts 348°
2026-05-06 17:40 39.77515 15.37085 35515 ft 448 kts 348°
2026-05-06 17:40 39.80610 15.36610 35837 ft 448 kts 348°
2026-05-06 17:41 39.83702 15.36135 36167 ft 447 kts 348°
2026-05-06 17:41 39.86831 15.35654 36503 ft 446 kts 348°
2026-05-06 17:41 39.89866 15.35187 36811 ft 445 kts 347°
2026-05-06 17:41 39.92933 15.34714 37029 ft 445 kts 347°
2026-05-06 17:42 39.99074 15.33767 36997 ft 442 kts 347°
2026-05-06 17:42 40.05197 15.32820 37001 ft 444 kts 347°
2026-05-06 17:43 40.11325 15.31871 37013 ft 444 kts 347°
2026-05-06 17:43 40.17461 15.30919 36991 ft 444 kts 347°
2026-05-06 17:44 40.23615 15.29963 37005 ft 445 kts 347°
2026-05-06 17:44 40.29763 15.29006 37004 ft 446 kts 347°
2026-05-06 17:45 40.35924 15.28045 37002 ft 446 kts 347°
2026-05-06 17:45 40.42095 15.27080 37004 ft 447 kts 347°
2026-05-06 17:46 40.48271 15.26114 37012 ft 447 kts 347°
2026-05-06 17:46 40.54452 15.25144 37008 ft 447 kts 347°
2026-05-06 17:47 40.60639 15.24172 36992 ft 448 kts 347°
2026-05-06 17:47 40.66822 15.23199 37019 ft 448 kts 347°
2026-05-06 17:48 40.73017 15.22221 37014 ft 448 kts 347°
2026-05-06 17:48 40.79213 15.21242 37011 ft 448 kts 347°
2026-05-06 17:49 40.85404 15.20262 37024 ft 449 kts 347°
2026-05-06 17:49 40.91614 15.19277 36994 ft 449 kts 347°
2026-05-06 17:50 40.97813 15.18292 36999 ft 449 kts 347°
2026-05-06 17:50 41.04023 15.17303 36996 ft 450 kts 347°
2026-05-06 17:51 41.10233 15.16312 37002 ft 449 kts 347°
2026-05-06 17:51 41.16435 15.15321 37003 ft 449 kts 347°
2026-05-06 17:52 41.22651 15.14326 36991 ft 449 kts 347°
2026-05-06 17:52 41.28860 15.13330 36996 ft 450 kts 347°
2026-05-06 17:53 41.35032 15.12337 36980 ft 450 kts 346°
2026-05-06 17:53 41.41253 15.11336 36972 ft 451 kts 346°
2026-05-06 17:54 41.47483 15.10330 36983 ft 451 kts 346°
2026-05-06 17:54 41.53721 15.09322 36962 ft 452 kts 346°
2026-05-06 17:55 41.59970 15.08309 36966 ft 453 kts 346°
2026-05-06 17:55 41.66228 15.07293 36962 ft 454 kts 346°
2026-05-06 17:56 41.72502 15.06273 36953 ft 454 kts 346°
2026-05-06 17:56 41.78785 15.05249 36945 ft 455 kts 346°
2026-05-06 17:57 41.85075 15.04222 36934 ft 455 kts 346°
2026-05-06 17:57 41.91369 15.03193 36938 ft 456 kts 346°
2026-05-06 17:58 41.97673 15.02159 36933 ft 457 kts 346°
2026-05-06 17:58 42.03984 15.01123 36923 ft 457 kts 346°
2026-05-06 17:59 42.10318 15.00080 36917 ft 460 kts 346°
2026-05-06 17:59 42.16669 14.99033 36920 ft 460 kts 346°
2026-05-06 18:00 42.21959 14.98159 36912 ft 461 kts 346°
2026-05-06 18:00 42.29358 14.96934 36912 ft 462 kts 346°
2026-05-06 18:01 42.35745 14.95874 36917 ft 462 kts 346°
2026-05-06 18:01 42.41094 14.94985 36918 ft 463 kts 346°
2026-05-06 18:02 42.47494 14.93919 36915 ft 464 kts 346°
2026-05-06 18:02 42.53906 14.92850 36920 ft 464 kts 346°
2026-05-06 18:03 42.60276 14.91784 36918 ft 464 kts 346°
2026-05-06 18:03 42.66687 14.90710 36919 ft 465 kts 346°
2026-05-06 18:04 42.73105 14.89632 36921 ft 465 kts 346°
2026-05-06 18:04 42.79521 14.88552 36917 ft 464 kts 346°
2026-05-06 18:05 42.85935 14.87471 36925 ft 465 kts 346°
2026-05-06 18:05 42.92348 14.86387 36928 ft 464 kts 346°
2026-05-06 18:06 42.98765 14.85301 36923 ft 464 kts 346°
2026-05-06 18:06 43.05165 14.84216 36926 ft 464 kts 346°
2026-05-06 18:07 43.11576 14.83126 36930 ft 464 kts 346°
2026-05-06 18:07 43.17982 14.82034 36931 ft 464 kts 346°
2026-05-06 18:08 43.24390 14.80941 36933 ft 464 kts 346°
2026-05-06 18:08 43.30807 14.79885 36932 ft 467 kts 351°
2026-05-06 18:09 43.37380 14.80372 36929 ft 474 kts 357°
2026-05-06 18:09 43.43963 14.80967 36939 ft 475 kts 358°
2026-05-06 18:10 43.50553 14.81576 36940 ft 474 kts 358°
2026-05-06 18:10 43.57089 14.82184 36941 ft 474 kts 358°
2026-05-06 18:11 43.63705 14.82801 36943 ft 474 kts 358°
2026-05-06 18:11 43.70246 14.83412 36943 ft 474 kts 358°
2026-05-06 18:12 43.76829 14.84029 36945 ft 474 kts 358°
2026-05-06 18:12 43.83418 14.84648 36946 ft 475 kts 358°
2026-05-06 18:13 43.90013 14.85268 36956 ft 475 kts 358°
2026-05-06 18:13 43.96610 14.85891 36944 ft 475 kts 358°
2026-05-06 18:14 44.03197 14.86514 36956 ft 475 kts 358°
2026-05-06 18:14 44.09790 14.87138 36952 ft 475 kts 358°
2026-05-06 18:15 44.16384 14.87765 36967 ft 475 kts 358°
2026-05-06 18:15 44.22964 14.88391 36965 ft 475 kts 358°
2026-05-06 18:16 44.29559 14.89020 36970 ft 474 kts 358°
2026-05-06 18:16 44.36140 14.89649 36970 ft 474 kts 358°
2026-05-06 18:17 44.42717 14.90279 36971 ft 474 kts 358°
2026-05-06 18:17 44.49301 14.90911 36970 ft 473 kts 359°
2026-05-06 18:18 44.55868 14.91544 36970 ft 473 kts 359°
2026-05-06 18:18 44.62434 14.92177 36966 ft 473 kts 359°
2026-05-06 18:19 44.68984 14.92810 36967 ft 472 kts 359°
2026-05-06 18:19 44.75544 14.93446 36965 ft 472 kts 359°
2026-05-06 18:20 44.82055 14.94078 36959 ft 472 kts 359°
2026-05-06 18:20 44.88636 14.94719 36958 ft 472 kts 359°
2026-05-06 18:21 44.93162 14.95160 36967 ft 472 kts 359°
2026-05-06 18:21 45.00042 14.95832 36958 ft 472 kts 359°
2026-05-06 18:22 45.06597 14.96475 36950 ft 472 kts 359°
2026-05-06 18:22 45.13145 14.97118 36956 ft 472 kts 359°
2026-05-06 18:23 45.19697 14.97763 36948 ft 473 kts 359°
2026-05-06 18:23 45.26273 14.98411 36944 ft 474 kts 359°
2026-05-06 18:24 45.32853 14.99062 36974 ft 475 kts 359°
2026-05-06 18:24 45.39447 14.99714 36930 ft 475 kts 359°
2026-05-06 18:25 45.46056 15.00370 36941 ft 476 kts 359°
2026-05-06 18:25 45.52579 15.00134 36949 ft 467 kts 347°
2026-05-06 18:26 45.59050 14.99004 36935 ft 469 kts 347°
2026-05-06 18:26 45.65481 14.97856 36914 ft 468 kts 347°
2026-05-06 18:27 45.71987 14.96687 36911 ft 468 kts 347°
2026-05-06 18:27 45.78407 14.95531 36928 ft 468 kts 347°
2026-05-06 18:28 45.84867 14.94365 36939 ft 468 kts 348°
2026-05-06 18:28 45.91320 14.93197 36922 ft 467 kts 348°
2026-05-06 18:29 45.97778 14.92026 36923 ft 467 kts 348°
2026-05-06 18:29 46.04229 14.90853 36909 ft 467 kts 348°
2026-05-06 18:30 46.10678 14.89678 36928 ft 468 kts 348°
2026-05-06 18:30 46.17136 14.88498 36921 ft 468 kts 348°
2026-05-06 18:31 46.23594 14.87316 36923 ft 468 kts 348°
2026-05-06 18:31 46.30039 14.86134 36907 ft 466 kts 348°
2026-05-06 18:32 46.35667 14.85099 36907 ft 469 kts 348°
2026-05-06 18:32 46.41085 14.84101 36906 ft 469 kts 348°
2026-05-06 18:33 46.47566 14.82903 36896 ft 469 kts 348°
2026-05-06 18:33 46.54049 14.81703 36874 ft 469 kts 348°
2026-05-06 18:34 46.60534 14.80500 36896 ft 470 kts 348°
2026-05-06 18:34 46.67020 14.79294 36885 ft 470 kts 348°
2026-05-06 18:35 46.73509 14.78083 36875 ft 470 kts 348°
2026-05-06 18:35 46.80018 14.76865 36869 ft 471 kts 347°
2026-05-06 18:36 46.86494 14.75652 36816 ft 471 kts 347°
2026-05-06 18:36 46.89748 14.75043 36657 ft 471 kts 348°
2026-05-06 18:36 46.92997 14.74431 36511 ft 471 kts 347°
2026-05-06 18:37 46.96251 14.73818 36342 ft 471 kts 347°
2026-05-06 18:37 46.98399 14.73414 36233 ft 471 kts 347°
2026-05-06 18:37 47.02753 14.72592 36023 ft 472 kts 347°
2026-05-06 18:37 47.05973 14.71984 35899 ft 473 kts 347°
2026-05-06 18:38 47.12500 14.70749 35836 ft 474 kts 347°
2026-05-06 18:38 47.19051 14.69506 35832 ft 475 kts 347°
2026-05-06 18:39 47.25613 14.68259 35831 ft 476 kts 347°
2026-05-06 18:40 47.35483 14.66375 35842 ft 477 kts 347°
2026-05-06 18:40 47.42079 14.65114 35818 ft 478 kts 347°
2026-05-06 18:41 47.48679 14.63849 35810 ft 478 kts 347°
2026-05-06 18:41 47.55295 14.62575 35815 ft 480 kts 347°
2026-05-06 18:42 47.61916 14.61299 35763 ft 480 kts 347°
2026-05-06 18:42 47.68548 14.60015 35818 ft 483 kts 347°
2026-05-06 18:43 47.75191 14.58728 35754 ft 481 kts 347°
2026-05-06 18:43 47.81837 14.57437 35739 ft 481 kts 347°
2026-05-06 18:44 47.88472 14.56144 35737 ft 482 kts 347°
2026-05-06 18:44 47.95127 14.54844 35715 ft 482 kts 347°
2026-05-06 18:45 48.01778 14.53541 35720 ft 482 kts 346°
2026-05-06 18:45 48.08437 14.52234 35718 ft 483 kts 346°
2026-05-06 18:46 48.15096 14.50923 35722 ft 483 kts 346°
2026-05-06 18:46 48.21761 14.49608 35723 ft 483 kts 346°
2026-05-06 18:47 48.28435 14.48287 35723 ft 484 kts 346°
2026-05-06 18:47 48.35119 14.46960 35722 ft 485 kts 346°
2026-05-06 18:48 48.41827 14.45626 35713 ft 486 kts 347°
2026-05-06 18:48 48.45347 14.44925 35713 ft 487 kts 347°
2026-05-06 18:49 48.52064 14.43584 35697 ft 487 kts 347°
2026-05-06 18:49 48.58781 14.42239 35697 ft 487 kts 347°
2026-05-06 18:50 48.65511 14.40888 35700 ft 488 kts 347°
2026-05-06 18:50 48.72253 14.39693 35684 ft 493 kts 355°
2026-05-06 18:50 48.75683 14.40259 35704 ft 499 kts
2026-05-06 18:51 48.79114 14.41130 35686 ft 500 kts
2026-05-06 18:51 48.85976 14.42914 35699 ft 501 kts
2026-05-06 18:52 48.92836 14.44762 35704 ft 500 kts
2026-05-06 18:52 48.99683 14.46615 35700 ft 500 kts
2026-05-06 18:53 49.06557 14.47653 35706 ft 495 kts 359°
2026-05-06 18:53 49.13447 14.48364 35696 ft 496 kts 359°
2026-05-06 18:54 49.20327 14.49141 35704 ft 496 kts 360°
2026-05-06 18:54 49.27201 14.49931 35709 ft 495 kts 360°
2026-05-06 18:55 49.34064 14.50725 35714 ft 494 kts 360°
2026-05-06 18:55 49.40923 14.51522 35718 ft 494 kts
2026-05-06 18:56 49.47767 14.52320 35717 ft 493 kts
2026-05-06 18:56 49.54597 14.53117 35722 ft 492 kts
2026-05-06 18:57 49.61412 14.53916 35735 ft 491 kts
2026-05-06 18:57 49.68195 14.54713 35733 ft 491 kts
2026-05-06 18:58 49.74996 14.55514 35741 ft 490 kts
2026-05-06 18:58 49.81781 14.56315 35743 ft 490 kts
2026-05-06 18:59 49.88576 14.57120 35748 ft 489 kts
2026-05-06 18:59 49.95416 14.57933 35750 ft 489 kts
2026-05-06 19:00 50.02145 14.58735 35749 ft 489 kts
2026-05-06 19:00 50.08924 14.59545 35748 ft 489 kts
2026-05-06 19:01 50.15700 14.60357 35750 ft 488 kts
2026-05-06 19:01 50.22487 14.61172 35751 ft 489 kts
2026-05-06 19:02 50.29320 14.61995 35756 ft 489 kts
2026-05-06 19:02 50.36104 14.62816 35758 ft 489 kts
2026-05-06 19:03 50.42855 14.63633 35766 ft 490 kts
2026-05-06 19:03 50.49646 14.64459 35775 ft 490 kts
2026-05-06 19:04 50.56434 14.65287 35773 ft 489 kts
2026-05-06 19:04 50.63226 14.66117 35769 ft 489 kts
2026-05-06 19:05 50.70019 14.66950 35778 ft 489 kts
2026-05-06 19:05 50.76039 14.67690 35775 ft 489 kts
2026-05-06 19:06 50.82811 14.68525 35780 ft 488 kts
2026-05-06 19:06 50.86201 14.68943 35647 ft 488 kts
2026-05-06 19:06 50.89559 14.69359 35250 ft 481 kts
2026-05-06 19:06 50.92922 14.69638 34947 ft 482 kts 352°
2026-05-06 19:07 50.96187 14.68781 35161 ft 475 kts 341°
2026-05-06 19:07 50.99402 14.67574 34876 ft 476 kts 341°
2026-05-06 19:07 51.02619 14.66352 34543 ft 474 kts 343°
2026-05-06 19:07 51.05928 14.65815 34192 ft 482 kts 357°
2026-05-06 19:08 51.09290 14.66101 33860 ft 485 kts 360°
2026-05-06 19:08 51.12666 14.66488 33460 ft 486 kts
2026-05-06 19:08 51.16043 14.66871 33052 ft 488 kts
2026-05-06 19:08 51.19434 14.67240 32647 ft 490 kts
2026-05-06 19:09 51.22841 14.67598 32229 ft 491 kts
2026-05-06 19:09 51.26266 14.67945 31788 ft 493 kts
2026-05-06 19:09 51.29692 14.68283 31226 ft 494 kts
2026-05-06 19:09 51.33121 14.68606 30818 ft 496 kts
2026-05-06 19:10 51.36588 14.68926 30697 ft 500 kts
2026-05-06 19:10 51.40055 14.69244 30272 ft 500 kts
2026-05-06 19:10 51.43529 14.69556 29705 ft 500 kts
2026-05-06 19:10 51.47015 14.69863 29072 ft 502 kts
2026-05-06 19:11 51.50502 14.70165 28454 ft 503 kts
2026-05-06 19:11 51.53978 14.70463 27699 ft 498 kts
2026-05-06 19:11 51.57388 14.70334 27234 ft 482 kts 346°
2026-05-06 19:11 51.60456 14.68631 26883 ft 458 kts 325°
2026-05-06 19:12 51.62860 14.65505 26541 ft 433 kts 304°
2026-05-06 19:12 51.64438 14.61535 26250 ft 413 kts 293°
2026-05-06 19:12 51.65814 14.57537 25958 ft 406 kts 293°
2026-05-06 19:12 51.67225 14.53511 25600 ft 418 kts 294°
2026-05-06 19:13 51.68676 14.49427 25289 ft 423 kts 294°
2026-05-06 19:13 51.70138 14.45291 24981 ft 423 kts 294°
2026-05-06 19:13 51.71585 14.41177 24682 ft 422 kts 294°
2026-05-06 19:13 51.73027 14.37060 24229 ft 420 kts 295°
2026-05-06 19:14 51.74461 14.32964 23770 ft 418 kts 295°
2026-05-06 19:14 51.75884 14.28890 23300 ft 416 kts 295°
2026-05-06 19:14 51.77294 14.24843 22756 ft 413 kts 295°
2026-05-06 19:14 51.78695 14.20813 22226 ft 410 kts 295°
2026-05-06 19:15 51.80065 14.16869 21703 ft 406 kts 295°
2026-05-06 19:15 51.81459 14.12847 21185 ft 403 kts 295°
2026-05-06 19:15 51.82822 14.08906 20676 ft 400 kts 295°
2026-05-06 19:15 51.84174 14.04994 20177 ft 397 kts 295°
2026-05-06 19:16 51.85517 14.01105 19688 ft 394 kts 296°
2026-05-06 19:16 51.86849 13.97240 19209 ft 391 kts 296°
2026-05-06 19:16 51.88166 13.93411 18736 ft 388 kts 296°
2026-05-06 19:16 51.89457 13.89655 18265 ft 385 kts 296°
2026-05-06 19:17 51.90770 13.85830 17771 ft 382 kts 296°
2026-05-06 19:17 51.92054 13.82084 17163 ft 380 kts 296°
2026-05-06 19:17 51.93324 13.78381 16524 ft 381 kts 296°
2026-05-06 19:17 51.94622 13.74593 15885 ft 382 kts 296°
2026-05-06 19:18 51.95912 13.70823 15265 ft 382 kts 296°
2026-05-06 19:18 51.97178 13.67110 14663 ft 381 kts 296°
2026-05-06 19:18 51.98448 13.63383 14075 ft 381 kts 296°
2026-05-06 19:18 51.99740 13.59582 13471 ft 381 kts 296°
2026-05-06 19:19 52.01018 13.55818 12809 ft 380 kts 296°
2026-05-06 19:19 52.02289 13.52066 12171 ft 379 kts 296°
2026-05-06 19:19 52.03559 13.48315 11547 ft 378 kts 296°
2026-05-06 19:19 52.04811 13.44602 11026 ft 370 kts 296°
2026-05-06 19:20 52.06026 13.40986 10636 ft 359 kts 296°
2026-05-06 19:20 52.07208 13.37464 10175 ft 352 kts 296°
2026-05-06 19:20 52.08369 13.34005 9687 ft 344 kts 296°
2026-05-06 19:20 52.09490 13.30661 9190 ft 330 kts 296°
2026-05-06 19:21 52.10563 13.27454 8676 ft 317 kts 296°
2026-05-06 19:21 52.11604 13.24346 8195 ft 307 kts 297°
2026-05-06 19:21 52.12597 13.21376 7714 ft 298 kts 297°
2026-05-06 19:21 52.13571 13.18465 7459 ft 287 kts 297°
2026-05-06 19:22 52.14505 13.15668 7216 ft 276 kts 297°
2026-05-06 19:22 52.15353 13.13131 6999 ft 268 kts 297°
2026-05-06 19:22 52.16217 13.10544 6719 ft 262 kts 297°
2026-05-06 19:22 52.17283 13.08192 6416 ft 259 kts 319°
2026-05-06 19:23 52.18826 13.06740 6140 ft 256 kts 334°
2026-05-06 19:23 52.20490 13.05693 5821 ft 257 kts 346°
2026-05-06 19:23 52.22271 13.05786 5507 ft 260 kts 15°
2026-05-06 19:23 52.23871 13.07142 5216 ft 261 kts 33°
2026-05-06 19:24 52.25341 13.08871 4937 ft 259 kts 35°
2026-05-06 19:24 52.26789 13.10603 4641 ft 257 kts 35°
2026-05-06 19:24 52.28136 13.12521 4317 ft 257 kts 51°
2026-05-06 19:24 52.28913 13.15108 4009 ft 252 kts 72°
2026-05-06 19:25 52.29469 13.17790 3708 ft 246 kts 70°
2026-05-06 19:25 52.30063 13.20361 3506 ft 236 kts 69°
2026-05-06 19:25 52.30653 13.22829 3461 ft 232 kts 69°
2026-05-06 19:25 52.31241 13.25297 3182 ft 233 kts 69°
2026-05-06 19:26 52.31828 13.27755 2902 ft 229 kts 69°
2026-05-06 19:26 52.32393 13.30132 2602 ft 221 kts 69°
2026-05-06 19:26 52.32938 13.32420 2312 ft 210 kts 69°
2026-05-06 19:26 52.33441 13.34534 2033 ft 190 kts 69°
2026-05-06 19:27 52.33886 13.36401 1792 ft 164 kts 69°
2026-05-06 19:27 52.34272 13.38021 1563 ft 143 kts 68°
2026-05-06 19:27 52.34606 13.39428 1413 ft 130 kts 68°
2026-05-06 19:27 52.34933 13.40804 1218 ft 130 kts 68°
2026-05-06 19:28 52.35268 13.42198 1034 ft 132 kts 68°
2026-05-06 19:28 52.35601 13.43579 839 ft 131 kts 68°
2026-05-06 19:28 52.35936 13.44980 649 ft 132 kts 67°
2026-05-06 19:28 52.36266 13.46376 430 ft 133 kts 67°
2026-05-06 19:29 52.36596 13.47784 272 ft 131 kts 68°
2026-05-06 19:29 52.36922 13.49156 159 ft 126 kts 68°
2026-05-06 19:29 52.37170 13.50196 161 ft 69 kts 69°
2026-05-06 19:29 52.37301 13.50819 160 ft 32 kts 85°
2026-05-06 19:30 52.37294 13.51110 163 ft 20 kts 97°
2026-05-06 19:30 52.37287 13.51192 164 ft 6 kts 98°
2026-05-06 19:30 52.37280 13.51273 165 ft 9 kts 97°
2026-05-06 19:30 52.37271 13.51332 164 ft 0 kts 114°
2026-05-06 19:31 52.37271 13.51335 164 ft 2 kts 115°
2026-05-06 19:31 52.37251 13.51374 163 ft 9 kts 140°
2026-05-06 19:31 52.37028 13.51410 159 ft 21 kts 245°
2026-05-06 19:32 52.36975 13.51175 158 ft 23 kts 248°
2026-05-06 19:32 52.36914 13.50915 158 ft 25 kts 249°
2026-05-06 19:32 52.36856 13.50676 158 ft 13 kts 248°
2026-05-06 19:32 52.36816 13.50644 158 ft 6 kts 137°
2026-05-06 19:33 52.36787 13.50672 157 ft 1 kts 159°
2026-05-06 19:33 52.36778 13.50678 158 ft 0 kts 159°